Panama City Beach, FL

6:45 AM CST on January 22, 2017 (GMT -0600)
Northwest Florida Beaches International

Weather History for KECP - April, 2013

Change the Weather History Date:

Saturday, April 20, 2013

  Actual Average Record
Temperature  
Mean Temperature 58 °F -  
Max Temperature 69 °F - 86 °F (2011)
Min Temperature 46 °F - 46 °F (2013)
Degree Days  
Heating Degree Days 7    
Cooling Degree Days 0    
Growing Degree Days 7 (Base 50)    
Moisture  
Dew Point 42 °F    
Average Humidity 63    
Maximum Humidity 93    
Minimum Humidity 32    
Precipitation  
Precipitation 0.00 in - 0.03 in (2015)
Month to date precipitation  
Year to date precipitation  
Sea Level Pressure  
Sea Level Pressure 30.18 in    
Wind  
Wind Speed 7 mph (NNW)    
Max Wind Speed 23 mph    
Max Gust Speed 29 mph    
Visibility 10 miles    
Events      
T = Trace of Precipitation, MM = Missing Value Source: NWS Daily Summary

Daily Weather History Graph

Daily Weather History Graph

Search for Another Location

Airport or City:

Trip Planner

Search our weather history database for the weather conditions in past years. The results will help you decide how hot, cold, wet, or windy it might be!

Date:

Astronomy

Apr. 20, 2013 Rise Set
Actual Time 7:10 AM EDT 8:14 PM EDT
Civil Twilight 6:45 AM EDT 8:39 PM EDT
Nautical Twilight 6:16 AM EDT 9:08 PM EDT
Astronomical Twilight 5:45 AM EDT 9:39 PM EDT
Moon 3:18 PM EDT (4/20) 3:36 AM EDT (4/20)
Length of Visible Light 13h 53m
Length of Day
13h 03m
Waxing Gibbous, 71% of the Moon is Illuminated
Apr 20
Waxing Gibbous
Apr 25
Full
May 2
Last Quarter
May 9
New
May 18
First Quarter

Hourly Weather History & Observations

Time (EDT) Temp. Windchill Dew Point Humidity Pressure Visibility Wind Dir Wind Speed Gust Speed Precip Events Conditions
12:53 AM 50.0 °F - 48.0 °F 93% 30.16 in 10.0 mi WNW 4.6 mph - 0.01 in   Partly Cloudy
1:53 AM 50.0 °F - 48.0 °F 93% 30.16 in 10.0 mi NW 4.6 mph - N/A   Clear
2:13 AM 51.8 °F - 48.2 °F 88% 30.12 in 10.0 mi NW 4.6 mph - N/A   Partly Cloudy
2:53 AM 51.1 °F - 48.0 °F 89% 30.15 in 10.0 mi NW 6.9 mph - N/A   Clear
3:53 AM 50.0 °F - 48.0 °F 93% 30.14 in 10.0 mi NW 5.8 mph - N/A   Clear
4:53 AM 48.9 °F - 46.0 °F 90% 30.14 in 10.0 mi NNW 5.8 mph - N/A   Clear
5:53 AM 48.0 °F - 45.0 °F 89% 30.17 in 10.0 mi NW 6.9 mph - N/A   Clear
6:53 AM 46.9 °F - 43.0 °F 86% 30.18 in 10.0 mi NNW 8.1 mph - N/A   Clear
7:53 AM 46.0 °F 41.9 °F 42.1 °F 86% 30.21 in 10.0 mi North 8.1 mph - N/A   Clear
8:53 AM 48.9 °F - 39.0 °F 69% 30.22 in 10.0 mi North 11.5 mph 20.7 mph N/A   Clear
9:53 AM 52.0 °F - 37.9 °F 59% 30.23 in 10.0 mi North 15.0 mph 26.5 mph N/A   Clear
10:53 AM 55.9 °F - 36.0 °F 47% 30.24 in 10.0 mi North 15.0 mph 26.5 mph N/A   Clear
11:53 AM 57.9 °F - 37.0 °F 46% 30.25 in 10.0 mi North 12.7 mph 21.9 mph N/A   Clear
12:53 PM 62.1 °F - 37.0 °F 39% 30.23 in 10.0 mi North 9.2 mph - N/A   Clear
1:53 PM 64.0 °F - 37.9 °F 38% 30.20 in 10.0 mi North 9.2 mph - N/A   Clear
2:53 PM 64.9 °F - 37.0 °F 36% 30.18 in 10.0 mi NNE 9.2 mph - N/A   Clear
3:53 PM 66.9 °F - 39.0 °F 36% 30.16 in 10.0 mi North 15.0 mph 19.6 mph N/A   Clear
4:53 PM 68.0 °F - 37.0 °F 32% 30.14 in 10.0 mi North 8.1 mph 17.3 mph N/A   Clear
5:53 PM 68.0 °F - 37.0 °F 32% 30.15 in 10.0 mi NNW 9.2 mph 17.3 mph N/A   Clear
6:53 PM 66.0 °F - 36.0 °F 33% 30.15 in 10.0 mi North 11.5 mph - N/A   Clear
7:53 PM 62.1 °F - 42.1 °F 48% 30.16 in 10.0 mi North 6.9 mph - N/A   Clear
8:53 PM 55.9 °F - 46.0 °F 69% 30.19 in 10.0 mi North 3.5 mph - N/A   Clear
9:53 PM 53.1 °F - 48.9 °F 86% 30.21 in 10.0 mi North 3.5 mph - N/A   Clear
10:53 PM 52.0 °F - 45.0 °F 77% 30.22 in 10.0 mi North 3.5 mph - N/A   Clear
11:53 PM 50.0 °F - 45.0 °F 83% 30.22 in 10.0 mi North 3.5 mph - N/A   Clear